Starlink 34310

operational
NORAD ID: 64210 Int'l Des: 2025-117 Owner: SPXS Country: US Constellation: starlink
LEOCIRCULAR

关于 Starlink 34310

正在加载描述...

实时位置

正在加载3D地球...

即将过境

高度历史

Altitude vs Time

uPlot chart will show altitude changes over time

两行轨道根数

1 64210U 25117H 25340.64551077 .00001244 00000-0 54097-4 0 9998
2 64210 53.1599 111.5437 0001168 96.9235 263.1899 15.30205413 30284
Epoch: Dec 6, 2025 • Age: 15 hours

当前状态

高度 477.9 km
速度 7.63 km/s
星下点 38.93°N, 83.04°E
发射日期 May 31, 2025
运行时间 0.5 years
类型 internet

技术详情

分类 Payload
质量 575.00 kg
干质量 530.00 kg
总质量 575.00 kg
长度 0.30 m
直径 4.10 m
跨度 29.00 m
形状 Box + pan
制造商 SPXS
平台类型 Starlink V2MO
阶段状态 In Orbit
所有者/国家 SPXS/US

大型星座

Loading constellations...